Weather Roundup
Issued by NWS

Home | Current Version | Previous Version | Graphics & Text | Print | Product List | Glossary Off
Versions: 1 2 3 4 5 6 7 8 9 10 11 12 13 14 15 16 17 18 19 20 21 22 23 24 25 26 27 28 29 30 31 32 33 34 35 36 37 38 39 40 41 42 43 44 45 46 47 48 49 50

171
NZUS93 KARX 300210
HRRWXR

CURRENT HOURLY OBSERVATIONS ACROSS
MUCH OF THE UPPER MISSISSIPPI VALLEY
NATIONAL WEATHER SERVICE LA CROSSE WI
900 PM CDT SAT APR 29 2017


...SOUTHEAST MINNESOTA...


CITY           SKY/WX    TMP DP  RH WIND       PRES   REMARKS
ROCHESTER      CLOUDY    46  31  55 E12       30.13R
ROCHESTER/MAYO CLOUDY    48  30  49 NE7G16    30.14R
WINONA         CLOUDY    48  30  49 E8        30.16S
AUSTIN         CLOUDY    46  30  53 NE10G17   30.11F
ALBERT LEA     CLOUDY    46  30  53 NE10G16   30.13R
DODGE CENTER   CLOUDY    46  30  53 NE13      30.14R
PRESTON        CLOUDY    45  28  52 E15G22    30.12S
OWATONNA       CLOUDY    48  30  49 NE9       30.14S
FARIBAULT      MOCLDY    48  30  49 NE5       30.16R
$$

...ELSEWHERE IN MINNESOTA...


CITY           SKY/WX    TMP DP  RH WIND       PRES   REMARKS
MINNEAPOLIS    CLOUDY    52  23  32 NE12      30.18R
INTNL FALLS    CLEAR     39  22  50 E3        30.25R
DULUTH         PTCLDY    40  15  36 E13       30.26S WCI  32
RED WING       CLOUDY    52  23  32 E10       30.15S
REDWOOD FALLS  CLOUDY    51  22  31 NE6       30.18R
MANKATO        CLOUDY    50  30  46 NE8       30.16R
WORTHINGTON    CLOUDY    46  25  43 NE14      30.15R
FAIRMONT       CLOUDY    48  30  49 NE10      30.15R
$$

...SOUTHWEST WISCONSIN...


CITY           SKY/WX    TMP DP  RH WIND       PRES   REMARKS
LA CROSSE      CLOUDY    49  29  46 E15G21    30.15R
PRAIRIE DU CHI CLOUDY    43  32  64 E9G20     30.11R
BOSCOBEL       CLOUDY    43  33  68 E8G21     30.11F
LONE ROCK      CLOUDY    41  31  67 NE21G30   30.11F
PLATTEVILLE    CLOUDY    40  36  84 NE20      30.07R WCI  30
FORT MC COY    CLOUDY    46  32  57 E8        30.16R
CAMP DOUGLAS   CLOUDY    44  29  54 E18       30.14F
MAUSTON-NEW LI CLOUDY    45  29  55 E12G17    30.14F
VIROQUA        CLOUDY    43  28  55 NE20G33   30.11S
WIS DELLS      CLOUDY    42  28  57 NE16G22   30.13F
$$

...ELSEWHERE IN WISCONSIN...


CITY           SKY/WX    TMP DP  RH WIND       PRES   REMARKS
MILWAUKEE      LGT RAIN  40  37  89 NE22G31   30.12F WCI  30
MADISON        LGT RAIN  38  34  85 NE17      30.11S WCI  28
GREEN BAY      CLOUDY    46  28  49 E16G26    30.22F
EAU CLAIRE     MOCLDY    50  25  37 E12       30.20R
BLACK RVR FLS  CLOUDY    47  29  49 E5        30.18R
MEDFORD        CLOUDY    45  27  49 NE12G20   30.18F
WAUSAU         CLOUDY    44  31  60 SE9       30.21R
WIS RAPIDS     CLOUDY    45  30  55 E9        30.19F
MARSHFIELD     CLOUDY    45  31  58 E13       30.16F
RICE LAKE      CLOUDY    46  26  46 NE13      30.23R
$$

...NORTHEAST IOWA...


CITY           SKY/WX    TMP DP  RH WIND       PRES   REMARKS
WATERLOO       CLOUDY    43  34  70 NE16      30.06F
DUBUQUE        CLOUDY    40  34  79 NE21G31   30.04R WCI  30
DECORAH        CLOUDY    45  30  57 E18       30.08F
MASON CITY     CLOUDY    46  29  51 NE13      30.11R
CHARLES CITY   CLOUDY    46  28  49 NE16G23   30.08F
OELWEIN        CLOUDY    41  36  81 NE22G28   30.05F
$$

...ELSEWHERE IN IOWA...


CITY           SKY/WX    TMP DP  RH WIND       PRES   REMARKS
DES MOINES     LGT RAIN  42  39  89 NE16G22   30.02R FOG
IOWA CITY      CLOUDY    43  37  79 NE17G25   29.97F
FORT DODGE     CLOUDY    45  30  57 NE9G16    30.08R
MARSHALLTOWN   CLOUDY    42  36  79 NE17      30.04R
CEDAR RAPIDS   CLOUDY    41  39  93 NE22G29   29.98F
$$

...NORTHERN ILLINOIS...


CITY           SKY/WX    TMP DP  RH WIND       PRES   REMARKS
CHICAGO-OHARE  HVY RAIN  44  41  89 NE24G36   29.99F FOG
CHICAGO-MIDWAY RAIN      46  44  93 NE31G45   29.96F FOG
MOLINE         CLOUDY    42  38  85 NE16      30.00R
ROCKFORD       CLOUDY    41  37  86 NE21G32   29.99F
PEORIA         CLOUDY    44  42  93 NE25G31   29.90R
$$

NOTE: "FAIR" INDICATES FEW OR NO CLOUDS BELOW 12,000 FEET WITH NO
SIGNIFICANT WEATHER AND/OR OBSTRUCTIONS TO VISIBILITY. WIND
SPEEDS ARE IN MILES-PER-HOUR.




USA.gov is the U.S. government's official web portal to all federal, state and local government web resources and services.